,,,PA_Meas_PMT16A,,PR_Meas_QMR101_102,,RH_Meas_QMH101,,SR_Meas_QMS101,,TA_Meas_QMH101,,GenWind,,GenWind,
date,time,status,PA,status,PR,status,RH,status,SR,status,TA,status,DirAvg,status,SpdAvg,
2008-07-15, 07:14:04,VALID,1004.3,VALID,0,VALID,88.7391,VALID,225.764,VALID,26.1784,VALID,357,VALID,0.712109,
2008-07-15, 07:15:04,VALID,1004.33,VALID,0,VALID,88.434,VALID,228.982,VALID,26.2564,VALID,356,VALID,0.69375,
2008-07-15, 07:16:04,VALID,1004.32,VALID,0,VALID,87.8084,VALID,232.502,VALID,26.3733,VALID,355,VALID,0.380859,
2008-07-15, 07:17:04,VALID,1004.35,VALID,0,VALID,86.9235,VALID,235.518,VALID,26.4512,VALID,343,VALID,0.614453,
2008-07-15, 07:18:04,VALID,1004.38,VALID,0,VALID,86.1682,VALID,238.837,VALID,26.5291,VALID,343,VALID,0.6375,
2008-07-15, 07:19:04,VALID,1004.37,VALID,0,VALID,85.6418,VALID,241.854,VALID,26.5486,VALID,344,VALID,0.442187,
2008-07-15, 07:20:04,VALID,1004.35,VALID,0,VALID,86.3208,VALID,245.273,VALID,26.648,VALID,344,VALID,0.478516,
2008-07-15, 07:21:04,VALID,1004.36,VALID,0,VALID,85.268,VALID,248.793,VALID,26.726,VALID,357,VALID,0.736719,
2008-07-15, 07:22:04,VALID,1004.36,VALID,0,VALID,84.9247,VALID,251.608,VALID,26.7824,VALID,356,VALID,0.483594,
2008-07-15, 07:23:04,VALID,1004.34,VALID,0,VALID,84.4822,VALID,254.625,VALID,26.7998,VALID,356,VALID,0.867188,
2008-07-15, 07:24:04,VALID,1004.36,VALID,0,VALID,83.8414,VALID,257.944,VALID,26.9188,VALID,348,VALID,0.56875,
2008-07-15, 07:25:04,VALID,1004.37,VALID,0,VALID,83.788,VALID,261.263,VALID,26.9772,VALID,352,VALID,0.754687,
2008-07-15, 07:26:04,VALID,1004.39,VALID,0,VALID,83.582,VALID,264.078,VALID,27.0552,VALID,359,VALID,0.724609,
2008-07-15, 07:27:04,VALID,1004.39,VALID,0,VALID,82.6284,VALID,266.995,VALID,27.1331,VALID,353,VALID,0.451953,
2008-07-15, 07:28:04,VALID,1004.4,VALID,0,VALID,82.3004,VALID,270.012,VALID,27.1916,VALID,347,VALID,0.494922,
2008-07-15, 07:29:04,VALID,1004.42,VALID,0,VALID,82.1249,VALID,272.526,VALID,27.2869,VALID,348,VALID,0.583203,
2008-07-15, 07:30:04,VALID,1004.44,VALID,0,VALID,82.2012,VALID,275.744,VALID,27.4665,VALID,318,VALID,0.164844,
2008-07-15, 07:31:04,VALID,1004.45,VALID,0,VALID,81.69,VALID,278.459,VALID,27.5618,VALID,340,VALID,0.378906,
2008-07-15, 07:32:04,VALID,1004.45,VALID,0,VALID,80.4618,VALID,281.275,VALID,27.7567,VALID,340,VALID,0.265234,
2008-07-15, 07:33:04,VALID,1004.48,VALID,0,VALID,80.1032,VALID,283.99,VALID,27.8737,VALID,285,VALID,0.609375,
2008-07-15, 07:34:04,VALID,1004.48,VALID,0,VALID,78.9513,VALID,286.403,VALID,27.9343,VALID,284,VALID,0.676172,
2008-07-15, 07:35:04,VALID,1004.47,VALID,0,VALID,78.3639,VALID,289.722,VALID,27.9127,VALID,284,VALID,0.294141,
2008-07-15, 07:36:04,VALID,1004.5,VALID,0,VALID,78.9131,VALID,293.04,VALID,27.9127,VALID,284,VALID,0.211719,
2008-07-15, 07:37:04,VALID,1004.5,VALID,0,VALID,78.5851,VALID,295.756,VALID,28.0707,VALID,284,VALID,0.0578125,
2008-07-15, 07:38:04,VALID,1004.53,VALID,0,VALID,77.6696,VALID,297.164,VALID,28.2462,VALID,286,VALID,0.165234,
2008-07-15, 07:39:04,VALID,1004.53,VALID,0,VALID,77.2729,VALID,301.387,VALID,28.3631,VALID,286,VALID,0.174219,
2008-07-15, 07:40:04,VALID,1004.5,VALID,0,VALID,76.9754,VALID,302.694,VALID,28.5169,VALID,286,VALID,0.209375,
2008-07-15, 07:41:04,VALID,1004.52,VALID,0,VALID,77.3645,VALID,308.024,VALID,28.6166,VALID,7,VALID,0.273828,
2008-07-15, 07:42:04,VALID,1004.53,VALID,0,VALID,77.1356,VALID,311.142,VALID,28.7509,VALID,7,VALID,0.213672,
2008-07-15, 07:43:04,VALID,1004.55,VALID,0,VALID,75.5717,VALID,314.058,VALID,28.8851,VALID,353,VALID,0.528906,
2008-07-15, 07:44:04,VALID,1004.57,VALID,0,VALID,74.9995,VALID,317.779,VALID,28.9826,VALID,353,VALID,0.376953,
2008-07-15, 07:45:04,VALID,1004.59,VALID,0,VALID,75.3199,VALID,321.399,VALID,29.0628,VALID,353,VALID,0.385156,
2008-07-15, 07:46:04,VALID,1004.61,VALID,0,VALID,76.0752,VALID,324.215,VALID,29.026,VALID,17,VALID,0.270703,
2008-07-15, 07:47:04,VALID,1004.62,VALID,0,VALID,75.9302,VALID,327.332,VALID,29.0455,VALID,24,VALID,0.592188,
2008-07-15, 07:48:04,VALID,1004.64,VALID,0,VALID,74.5342,VALID,331.556,VALID,29.0845,VALID,1,VALID,0.41875,
2008-07-15, 07:49:04,VALID,1004.63,VALID,0,VALID,75.1979,VALID,334.975,VALID,29.0065,VALID,1,VALID,0.564453,
2008-07-15, 07:50:04,VALID,1004.62,VALID,0,VALID,74.9232,VALID,339.5,VALID,28.987,VALID,353,VALID,0.570313,
2008-07-15, 07:51:04,VALID,1004.62,VALID,0,VALID,75.2131,VALID,342.92,VALID,28.9697,VALID,353,VALID,0.269531,
2008-07-15, 07:52:04,VALID,1004.64,VALID,0,VALID,76.0828,VALID,347.043,VALID,28.9263,VALID,26,VALID,0.547656,
2008-07-15, 07:53:04,VALID,1004.63,VALID,0,VALID,75.3581,VALID,351.367,VALID,28.9458,VALID,339,VALID,0.455859,
2008-07-15, 07:54:04,VALID,1004.62,VALID,0,VALID,74.9766,VALID,355.591,VALID,28.9653,VALID,339,VALID,0.301562,
2008-07-15, 07:55:04,VALID,1004.67,VALID,0,VALID,75.0911,VALID,360.82,VALID,29.0433,VALID,339,VALID,0.219141,
2008-07-15, 07:56:04,VALID,1004.66,VALID,0,VALID,74.5189,VALID,368.362,VALID,29.0433,VALID,298,VALID,0.196484,
2008-07-15, 07:57:04,VALID,1004.64,VALID,0,VALID,75.3657,VALID,375.301,VALID,29.0455,VALID,281,VALID,0.511719,
2008-07-15, 07:58:04,VALID,1004.66,VALID,0,VALID,75.442,VALID,378.217,VALID,29.0238,VALID,276,VALID,0.440234,
2008-07-15, 07:59:04,VALID,1004.6,VALID,0,VALID,74.763,VALID,386.463,VALID,28.9653,VALID,266,VALID,0.635547,
2008-07-15, 08:00:04,VALID,1004.59,VALID,0,VALID,75.8311,VALID,395.414,VALID,28.987,VALID,2,VALID,0.866016,
2008-07-15, 08:01:04,VALID,1004.57,VALID,0,VALID,75.5717,VALID,399.838,VALID,29.026,VALID,1,VALID,0.737891,
2008-07-15, 08:02:04,VALID,1004.58,VALID,0,VALID,74.702,VALID,400.442,VALID,28.9653,VALID,39,VALID,0.743359,
2008-07-15, 08:03:04,VALID,1004.59,VALID,0,VALID,75.4725,VALID,399.335,VALID,28.9307,VALID,40,VALID,0.432813,
2008-07-15, 08:04:04,VALID,1004.58,VALID,0,VALID,74.8775,VALID,399.738,VALID,28.9068,VALID,27,VALID,0.679297,
2008-07-15, 08:05:04,VALID,1004.6,VALID,0,VALID,75.2208,VALID,403.459,VALID,29.0065,VALID,121,VALID,0.658984,
2008-07-15, 08:06:04,VALID,1004.58,VALID,0,VALID,74.3282,VALID,410.397,VALID,28.9458,VALID,138,VALID,0.552344,
2008-07-15, 08:07:04,VALID,1004.6,VALID,0,VALID,75.236,VALID,323.813,VALID,28.7314,VALID,105,VALID,0.967969,
2008-07-15, 08:08:04,VALID,1004.58,VALID,0,VALID,76.5024,VALID,229.384,VALID,28.6556,VALID,103,VALID,0.441016,
2008-07-15, 08:09:04,VALID,1004.6,VALID,0,VALID,76.5787,VALID,389.883,VALID,28.6166,VALID,105,VALID,0.490234,
2008-07-15, 08:10:04,VALID,1004.59,VALID,0,VALID,74.8927,VALID,417.94,VALID,28.6144,VALID,27,VALID,1.12617,
2008-07-15, 08:11:04,VALID,1004.57,VALID,0,VALID,76.1515,VALID,421.761,VALID,28.7119,VALID,27,VALID,0.816406,
2008-07-15, 08:12:04,VALID,1004.57,VALID,0,VALID,75.915,VALID,427.795,VALID,28.7509,VALID,122,VALID,1.27773,
2008-07-15, 08:13:04,VALID,1004.57,VALID,0,VALID,74.8012,VALID,434.532,VALID,28.6144,VALID,113,VALID,0.992969,
2008-07-15, 08:14:04,VALID,1004.58,VALID,0,VALID,75.1445,VALID,437.147,VALID,28.4996,VALID,114,VALID,0.717188,
2008-07-15, 08:15:04,VALID,1004.57,VALID,0,VALID,75.2208,VALID,442.276,VALID,28.4389,VALID,114,VALID,0.25625,
2008-07-15, 08:16:04,VALID,1004.57,VALID,0,VALID,75.5793,VALID,434.633,VALID,28.6361,VALID,114,VALID,0.158203,
2008-07-15, 08:17:04,VALID,1004.58,VALID,0,VALID,74.4731,VALID,407.783,VALID,28.8483,VALID,35,VALID,0.521484,
2008-07-15, 08:18:04,VALID,1004.59,VALID,0,VALID,75.4649,VALID,480.791,VALID,28.9848,VALID,37,VALID,0.303906,
2008-07-15, 08:19:04,VALID,1004.6,VALID,0,VALID,74.6638,VALID,494.569,VALID,29.065,VALID,115,VALID,0.588672,
2008-07-15, 08:20:04,VALID,1004.6,VALID,0,VALID,73.6111,VALID,297.968,VALID,29.1018,VALID,199,VALID,0.796484,
2008-07-15, 08:21:04,VALID,1004.6,VALID,0,VALID,74.4502,VALID,428.901,VALID,29.0845,VALID,217,VALID,0.718359,
2008-07-15, 08:22:04,VALID,1004.6,VALID,0,VALID,72.7414,VALID,504.424,VALID,28.9502,VALID,176,VALID,1.61055,
2008-07-15, 08:23:04,VALID,1004.62,VALID,0,VALID,73.2449,VALID,506.837,VALID,28.753,VALID,165,VALID,0.967188,
2008-07-15, 08:24:04,VALID,1004.62,VALID,0,VALID,74.3816,VALID,512.972,VALID,28.6166,VALID,165,VALID,0.954297,
2008-07-15, 08:25:04,VALID,1004.65,VALID,0,VALID,75.3276,VALID,403.459,VALID,28.5191,VALID,153,VALID,1.01602,
2008-07-15, 08:26:04,VALID,1004.66,VALID,0,VALID,76.1896,VALID,542.437,VALID,28.5581,VALID,218,VALID,0.504297,
2008-07-15, 08:27:04,VALID,1004.64,VALID,0,VALID,75.5259,VALID,189.561,VALID,28.6361,VALID,202,VALID,1.80156,
2008-07-15, 08:28:04,VALID,1004.65,VALID,0,VALID,77.2043,VALID,434.935,VALID,28.5169,VALID,182,VALID,1.15586,
2008-07-15, 08:29:04,VALID,1004.66,VALID,0,VALID,76.1667,VALID,228.378,VALID,28.4194,VALID,160,VALID,1.76758,
2008-07-15, 08:30:04,VALID,1004.64,VALID,0,VALID,75.7624,VALID,509.653,VALID,28.2245,VALID,111,VALID,1.21836,
2008-07-15, 08:31:04,VALID,1004.64,VALID,0,VALID,77.4942,VALID,542.437,VALID,28.2029,VALID,135,VALID,0.966797,
2008-07-15, 08:32:04,VALID,1004.65,VALID,0,VALID,75.648,VALID,551.185,VALID,28.3588,VALID,150,VALID,1.17813,
2008-07-15, 08:33:04,VALID,1004.65,VALID,0,VALID,77.5781,VALID,414.42,VALID,28.5148,VALID,134,VALID,1.18906,
2008-07-15, 08:34:04,VALID,1004.64,VALID,0,VALID,75.7472,VALID,141.09,VALID,28.6144,VALID,138,VALID,0.422656,
2008-07-15, 08:35:04,VALID,1004.66,VALID,0,VALID,75.503,VALID,152.755,VALID,28.6122,VALID,146,VALID,0.637109,
2008-07-15, 08:36:04,VALID,1004.68,VALID,0,VALID,76.7389,VALID,120.273,VALID,28.5537,VALID,192,VALID,1.20664,
2008-07-15, 08:37:04,VALID,1004.68,VALID,0,VALID,76.1362,VALID,127.614,VALID,28.4584,VALID,204,VALID,1.20156,
2008-07-15, 08:38:04,VALID,1004.68,VALID,0,VALID,76.0905,VALID,145.313,VALID,28.3025,VALID,215,VALID,0.594141,
2008-07-15, 08:39:04,VALID,1004.67,VALID,0,VALID,77.723,VALID,340.204,VALID,28.1855,VALID,219,VALID,0.477344,
2008-07-15, 08:40:04,VALID,1004.67,VALID,0,VALID,78.1045,VALID,163.616,VALID,28.0859,VALID,207,VALID,0.849219,
2008-07-15, 08:41:04,VALID,1004.68,VALID,0,VALID,78.1808,VALID,141.693,VALID,28.0491,VALID,200,VALID,1.0918,
2008-07-15, 08:42:04,VALID,1004.67,VALID,0,VALID,79.1725,VALID,621.982,VALID,27.9885,VALID,195,VALID,1.17031,
2008-07-15, 08:43:04,VALID,1004.68,VALID,0,VALID,78.0282,VALID,551.185,VALID,28.0686,VALID,174,VALID,0.690625,
2008-07-15, 08:44:04,VALID,1004.71,VALID,0,VALID,78.0053,VALID,323.209,VALID,28.166,VALID,212,VALID,1.15586,
2008-07-15, 08:45:04,VALID,1004.71,VALID,0,VALID,78.7911,VALID,585.075,VALID,28.205,VALID,182,VALID,1.29141,
2008-07-15, 08:46:04,VALID,1004.75,VALID,0,VALID,76.5558,VALID,609.311,VALID,28.322,VALID,205,VALID,1.23125,
2008-07-15, 08:47:04,VALID,1004.75,VALID,0,VALID,80.1338,VALID,597.243,VALID,28.4,VALID,182,VALID,0.748047,
2008-07-15, 08:48:04,VALID,1004.74,VALID,0,VALID,76.8915,VALID,133.346,VALID,28.361,VALID,188,VALID,1.31875,
2008-07-15, 08:49:04,VALID,1004.72,VALID,0,VALID,77.0135,VALID,166.029,VALID,28.1639,VALID,167,VALID,1.66328,
2008-07-15, 08:50:04,VALID,1004.75,VALID,0,VALID,78.5622,VALID,338.797,VALID,28.0665,VALID,167,VALID,1.17031,
2008-07-15, 08:51:04,VALID,1004.74,VALID,0,VALID,78.1121,VALID,397.928,VALID,28.0686,VALID,143,VALID,1.4707,
2008-07-15, 08:52:04,VALID,1004.74,VALID,0,VALID,76.9373,VALID,626.708,VALID,28.1054,VALID,158,VALID,1.19414,
2008-07-15, 08:53:04,VALID,1004.74,VALID,0,VALID,75.0758,VALID,609.009,VALID,28.2614,VALID,171,VALID,1.03555,
2008-07-15, 08:54:04,VALID,1004.74,VALID,0,VALID,75.03,VALID,604.182,VALID,28.4368,VALID,144,VALID,0.587109,
2008-07-15, 08:55:04,VALID,1004.73,VALID,0,VALID,75.4496,VALID,602.674,VALID,28.6144,VALID,191,VALID,1.33164,
2008-07-15, 08:56:04,VALID,1004.71,VALID,0,VALID,74.1222,VALID,607.601,VALID,28.6902,VALID,215,VALID,1.37773,
2008-07-15, 08:57:04,VALID,1004.69,VALID,0,VALID,75.114,VALID,253.419,VALID,28.6707,VALID,195,VALID,2.40781,
2008-07-15, 08:58:04,VALID,1004.7,VALID,0,VALID,76.0828,VALID,613.233,VALID,28.5191,VALID,169,VALID,1.82969,
2008-07-15, 08:59:04,VALID,1004.71,VALID,0,VALID,73.7713,VALID,609.411,VALID,28.4389,VALID,209,VALID,1.51445,
2008-07-15, 09:00:04,VALID,1004.7,VALID,0,VALID,74.3968,VALID,613.937,VALID,28.4389,VALID,204,VALID,1.04336,
2008-07-15, 09:01:04,VALID,1004.72,VALID,0,VALID,74.9919,VALID,621.378,VALID,28.4779,VALID,194,VALID,1.41953,
2008-07-15, 09:02:04,VALID,1004.7,VALID,0,VALID,73.9849,VALID,622.082,VALID,28.5754,VALID,280,VALID,0.715234,
2008-07-15, 09:03:04,VALID,1004.69,VALID,0,VALID,75.0682,VALID,613.535,VALID,28.6729,VALID,224,VALID,1.39766,
2008-07-15, 09:04:04,VALID,1004.7,VALID,0,VALID,72.7643,VALID,654.162,VALID,28.6556,VALID,157,VALID,1.50039,
2008-07-15, 09:05:04,VALID,1004.69,VALID,0,VALID,74.6257,VALID,322.405,VALID,28.5971,VALID,148,VALID,1.30352,
2008-07-15, 09:06:04,VALID,1004.7,VALID,0,VALID,73.4661,VALID,609.411,VALID,28.4974,VALID,141,VALID,1.58984,
2008-07-15, 09:07:04,VALID,1004.7,VALID,0,VALID,73.8094,VALID,452.332,VALID,28.4996,VALID,148,VALID,1.47617,
2008-07-15, 09:08:04,VALID,1004.67,VALID,0,VALID,74.2061,VALID,626.507,VALID,28.5191,VALID,147,VALID,1.4043,
2008-07-15, 09:09:04,VALID,1004.65,VALID,0,VALID,74.8927,VALID,619.87,VALID,28.5949,VALID,138,VALID,1.09141,
2008-07-15, 09:10:04,VALID,1004.64,VALID,0,VALID,72.8863,VALID,570.594,VALID,28.792,VALID,133,VALID,1.11055,
2008-07-15, 09:11:04,VALID,1004.64,VALID,0,VALID,71.8946,VALID,640.988,VALID,28.8093,VALID,93,VALID,1.01055,
2008-07-15, 09:12:04,VALID,1004.64,VALID,0,VALID,73.9239,VALID,641.793,VALID,28.7725,VALID,115,VALID,1.3332,
2008-07-15, 09:13:04,VALID,1004.64,VALID,0,VALID,75.8311,VALID,645.312,VALID,28.9263,VALID,178,VALID,1.17617,
2008-07-15, 09:14:04,VALID,1004.65,VALID,0,VALID,73.5119,VALID,678.498,VALID,29.0433,VALID,201,VALID,2.09141,
2008-07-15, 09:15:04,VALID,1004.69,VALID,0,VALID,72.4515,VALID,221.641,VALID,28.9848,VALID,179,VALID,1.70117,
2008-07-15, 09:16:04,VALID,1004.71,VALID,0,VALID,71.742,VALID,683.929,VALID,28.7898,VALID,202,VALID,2.27031,
2008-07-15, 09:17:04,VALID,1004.71,VALID,0,VALID,70.8799,VALID,116.05,VALID,28.6729,VALID,189,VALID,1.90273,
2008-07-15, 09:18:04,VALID,1004.75,VALID,0,VALID,71.1546,VALID,93.423,VALID,28.5148,VALID,166,VALID,1.80703,
2008-07-15, 09:19:04,VALID,1004.74,VALID,0,VALID,72.7109,VALID,107.803,VALID,28.3805,VALID,138,VALID,1.05664,
2008-07-15, 09:20:04,VALID,1004.76,VALID,0,VALID,73.6111,VALID,149.537,VALID,28.283,VALID,139,VALID,1.50547,
2008-07-15, 09:21:04,VALID,1004.77,VALID,0,VALID,72.9168,VALID,694.287,VALID,28.2245,VALID,156,VALID,1.26875,
2008-07-15, 09:22:04,VALID,1004.78,VALID,0,VALID,74.2061,VALID,691.471,VALID,28.3025,VALID,123,VALID,1.27617,
2008-07-15, 09:23:04,VALID,1004.77,VALID,0,VALID,71.2843,VALID,704.142,VALID,28.5364,VALID,159,VALID,1.15078,
2008-07-15, 09:24:04,VALID,1004.77,VALID,0,VALID,71.9022,VALID,725.562,VALID,28.7509,VALID,129,VALID,1.0207,
2008-07-15, 09:25:04,VALID,1004.78,VALID,0,VALID,69.6746,VALID,547.364,VALID,28.9263,VALID,160,VALID,1.61211,
2008-07-15, 09:26:04,VALID,1004.78,VALID,0,VALID,70.8265,VALID,183.93,VALID,28.8093,VALID,183,VALID,2.0125,
2008-07-15, 09:27:04,VALID,1004.82,VALID,0,VALID,73.8476,VALID,153.358,VALID,28.5949,VALID,135,VALID,1.48008,
2008-07-15, 09:28:04,VALID,1004.79,VALID,0,VALID,72.5812,VALID,199.215,VALID,28.4584,VALID,132,VALID,1.63828,
2008-07-15, 09:29:04,VALID,1004.83,VALID,0,VALID,74.1146,VALID,114.943,VALID,28.322,VALID,159,VALID,1.64297,
2008-07-15, 09:30:04,VALID,1004.78,VALID,0,VALID,73.3822,VALID,136.967,VALID,28.2072,VALID,152,VALID,1.44336,
2008-07-15, 09:31:04,VALID,1004.83,VALID,0,VALID,71.6657,VALID,710.578,VALID,28.1466,VALID,147,VALID,1.85625,
2008-07-15, 09:32:05,VALID,1004.78,VALID,0,VALID,71.7344,VALID,129.525,VALID,28.205,VALID,196,VALID,1.98438,
2008-07-15, 09:33:05,VALID,1004.78,VALID,0,VALID,73.5272,VALID,707.36,VALID,28.2462,VALID,122,VALID,1.29531,
2008-07-15, 09:34:05,VALID,1004.76,VALID,0,VALID,72.7643,VALID,720.634,VALID,28.3025,VALID,119,VALID,1.92734,
2008-07-15, 09:35:05,VALID,1004.76,VALID,0,VALID,71.5131,VALID,366.15,VALID,28.3805,VALID,153,VALID,1.84922,
2008-07-15, 09:36:05,VALID,1004.76,VALID,0,VALID,72.8253,VALID,200.623,VALID,28.4368,VALID,135,VALID,1.89453,
2008-07-15, 09:37:05,VALID,1004.73,VALID,0,VALID,75.114,VALID,757.239,VALID,28.3805,VALID,134,VALID,2.15742,
2008-07-15, 09:38:05,VALID,1004.75,VALID,0,VALID,74.8469,VALID,116.955,VALID,28.3805,VALID,165,VALID,1.97734,
2008-07-15, 09:39:05,VALID,1004.75,VALID,0,VALID,75.2894,VALID,102.675,VALID,28.2245,VALID,154,VALID,2.01484,
2008-07-15, 09:40:05,VALID,1004.75,VALID,0,VALID,74.4579,VALID,93.6241,VALID,28.1271,VALID,154,VALID,2.27227,
2008-07-15, 09:41:05,VALID,1004.77,VALID,0,VALID,73.9315,VALID,101.267,VALID,28.008,VALID,123,VALID,1.73711,
2008-07-15, 09:42:05,VALID,1004.79,VALID,0,VALID,75.2665,VALID,286.705,VALID,28.0296,VALID,133,VALID,1.29453,
2008-07-15, 09:43:05,VALID,1004.78,VALID,0,VALID,77.1356,VALID,304.806,VALID,28.0902,VALID,128,VALID,1.48477,
2008-07-15, 09:44:05,VALID,1004.77,VALID,0,VALID,75.9989,VALID,237.228,VALID,28.1682,VALID,164,VALID,1.33516,
2008-07-15, 09:45:05,VALID,1004.72,VALID,0,VALID,76.8533,VALID,231.395,VALID,28.1682,VALID,157,VALID,1.61133,
2008-07-15, 09:46:05,VALID,1004.74,VALID,0,VALID,76.7084,VALID,126.106,VALID,28.2462,VALID,183,VALID,0.771875,
2008-07-15, 09:47:05,VALID,1004.72,VALID,0,VALID,72.6727,VALID,110.921,VALID,28.2267,VALID,146,VALID,2.44688,
2008-07-15, 09:48:05,VALID,1004.71,VALID,0,VALID,73.6721,VALID,130.028,VALID,28.0902,VALID,171,VALID,1.88633,
2008-07-15, 09:49:05,VALID,1004.68,VALID,0,VALID,75.976,VALID,784.19,VALID,28.0707,VALID,133,VALID,1.24961,
2008-07-15, 09:50:05,VALID,1004.69,VALID,0,VALID,75.8768,VALID,638.776,VALID,28.2851,VALID,190,VALID,1.05273,
2008-07-15, 09:51:05,VALID,1004.66,VALID,0,VALID,73.489,VALID,764.681,VALID,28.4606,VALID,195,VALID,1.31328,
2008-07-15, 09:52:05,VALID,1004.67,VALID,0,VALID,76.5406,VALID,757.34,VALID,28.6144,VALID,172,VALID,1.21758,
2008-07-15, 09:53:05,VALID,1004.65,VALID,0,VALID,72.6956,VALID,752.814,VALID,28.753,VALID,203,VALID,1.82891,
2008-07-15, 09:54:05,VALID,1004.67,VALID,0,VALID,73.077,VALID,749.496,VALID,28.7314,VALID,156,VALID,2.55859,
2008-07-15, 09:55:05,VALID,1004.67,VALID,0,VALID,71.8412,VALID,756.937,VALID,28.714,VALID,147,VALID,1.89023,
2008-07-15, 09:56:05,VALID,1004.65,VALID,0,VALID,73.2754,VALID,764.077,VALID,28.714,VALID,154,VALID,1.8125,
2008-07-15, 09:57:05,VALID,1004.65,VALID,0,VALID,73.4356,VALID,771.519,VALID,28.753,VALID,144,VALID,2.11133,
2008-07-15, 09:58:05,VALID,1004.62,VALID,0,VALID,74.0154,VALID,775.34,VALID,28.9263,VALID,173,VALID,2.02031,
2008-07-15, 09:59:05,VALID,1004.59,VALID,0,VALID,73.7865,VALID,775.743,VALID,29.0411,VALID,165,VALID,1.12266,
2008-07-15, 10:00:05,VALID,1004.58,VALID,0,VALID,74.2595,VALID,778.659,VALID,29.1798,VALID,193,VALID,1.32227,
2008-07-15, 10:01:05,VALID,1004.53,VALID,0,VALID,72.4973,VALID,769.608,VALID,29.0238,VALID,148,VALID,1.65195,
2008-07-15, 10:02:05,VALID,1004.55,VALID,0,VALID,75.9684,VALID,764.178,VALID,29.1018,VALID,153,VALID,1.95859,
2008-07-15, 10:03:05,VALID,1004.54,VALID,0,VALID,73.3822,VALID,762.669,VALID,29.0974,VALID,197,VALID,2.32695,
2008-07-15, 10:04:05,VALID,1004.55,VALID,0,VALID,70.7502,VALID,764.58,VALID,29.0628,VALID,173,VALID,2.32656,
2008-07-15, 10:05:05,VALID,1004.53,VALID,0,VALID,75.7853,VALID,768.401,VALID,29.0628,VALID,165,VALID,1.16445,
2008-07-15, 10:06:05,VALID,1004.52,VALID,0,VALID,74.496,VALID,769.206,VALID,29.1971,VALID,187,VALID,1.54102,
2008-07-15, 10:07:05,VALID,1004.56,VALID,0,VALID,74.8927,VALID,769.91,VALID,29.2751,VALID,189,VALID,1.8,
2008-07-15, 10:08:05,VALID,1004.57,VALID,0,VALID,73.0008,VALID,771.519,VALID,29.2188,VALID,168,VALID,2.74258,
2008-07-15, 10:09:05,VALID,1004.55,VALID,0,VALID,72.1616,VALID,776.949,VALID,29.0043,VALID,143,VALID,1.67461,
2008-07-15, 10:10:05,VALID,1004.54,VALID,0,VALID,74.2061,VALID,777.452,VALID,28.9263,VALID,195,VALID,1.79375,
2008-07-15, 10:11:05,VALID,1004.54,VALID,0,VALID,75.2665,VALID,775.139,VALID,28.9458,VALID,179,VALID,1.92734,
2008-07-15, 10:12:05,VALID,1004.57,VALID,0,VALID,74.4502,VALID,773.53,VALID,28.9458,VALID,178,VALID,1.73086,
2008-07-15, 10:13:05,VALID,1004.58,VALID,0,VALID,72.337,VALID,776.547,VALID,28.909,VALID,174,VALID,2.12578,
2008-07-15, 10:14:05,VALID,1004.56,VALID,0,VALID,73.9467,VALID,778.458,VALID,29.026,VALID,186,VALID,2.58047,
2008-07-15, 10:15:05,VALID,1004.57,VALID,0,VALID,73.8704,VALID,781.475,VALID,28.9848,VALID,168,VALID,1.46289,
2008-07-15, 10:16:05,VALID,1004.54,VALID,0,VALID,75.648,VALID,784.994,VALID,29.0065,VALID,175,VALID,1.56797,
2008-07-15, 10:17:05,VALID,1004.54,VALID,0,VALID,73.6797,VALID,788.011,VALID,28.9263,VALID,181,VALID,2.19375,
2008-07-15, 10:18:05,VALID,1004.54,VALID,0,VALID,74.3129,VALID,786.101,VALID,28.831,VALID,149,VALID,1.91055,
2008-07-15, 10:19:05,VALID,1004.53,VALID,0,VALID,75.4267,VALID,788.011,VALID,28.9675,VALID,178,VALID,1.90742,
2008-07-15, 10:20:05,VALID,1004.54,VALID,0,VALID,72.2836,VALID,789.117,VALID,29.026,VALID,112,VALID,2.37969,
2008-07-15, 10:21:05,VALID,1004.51,VALID,0,VALID,74.3511,VALID,790.224,VALID,29.1625,VALID,157,VALID,1.48164,
2008-07-15, 10:22:05,VALID,1004.53,VALID,0,VALID,74.8088,VALID,795.352,VALID,29.338,VALID,158,VALID,2.05781,
2008-07-15, 10:23:05,VALID,1004.51,VALID,0,VALID,73.0008,VALID,802.693,VALID,29.4745,VALID,156,VALID,1.72422,
2008-07-15, 10:24:05,VALID,1004.51,VALID,0,VALID,71.6733,VALID,814.761,VALID,29.416,VALID,195,VALID,1.59297,
2008-07-15, 10:25:05,VALID,1004.5,VALID,0,VALID,71.3529,VALID,811.644,VALID,29.3163,VALID,178,VALID,2.00078,
2008-07-15, 10:26:05,VALID,1004.47,VALID,0,VALID,73.2144,VALID,801.286,VALID,29.2405,VALID,158,VALID,1.08008,
2008-07-15, 10:27:05,VALID,1004.49,VALID,0,VALID,72.421,VALID,799.375,VALID,29.1647,VALID,189,VALID,3.1125,
2008-07-15, 10:28:05,VALID,1004.48,VALID,0,VALID,75.5564,VALID,803.297,VALID,29.1213,VALID,146,VALID,1.5125,
2008-07-15, 10:29:05,VALID,1004.47,VALID,0,VALID,71.5894,VALID,805.409,VALID,29.2383,VALID,193,VALID,1.78672,
2008-07-15, 10:30:05,VALID,1004.41,VALID,0,VALID,73.9544,VALID,809.129,VALID,29.2968,VALID,158,VALID,0.958594,
2008-07-15, 10:31:05,VALID,1004.44,VALID,0,VALID,72.9321,VALID,814.359,VALID,29.3575,VALID,149,VALID,2.67852,
2008-07-15, 10:32:05,VALID,1004.4,VALID,0,VALID,75.0758,VALID,824.817,VALID,29.26,VALID,159,VALID,1.56797,
2008-07-15, 10:33:05,VALID,1004.35,VALID,0,VALID,74.0764,VALID,813.253,VALID,29.2405,VALID,153,VALID,0.967578,
2008-07-15, 10:34:05,VALID,1004.31,VALID,0,VALID,73.962,VALID,805.911,VALID,29.299,VALID,170,VALID,2.50391,
2008-07-15, 10:35:05,VALID,1004.31,VALID,0,VALID,73.5653,VALID,807.319,VALID,29.3965,VALID,207,VALID,1.33398,
2008-07-15, 10:36:05,VALID,1004.31,VALID,0,VALID,70.857,VALID,809.029,VALID,29.533,VALID,205,VALID,1.80586,
2008-07-15, 10:37:05,VALID,1004.29,VALID,0,VALID,73.3746,VALID,813.755,VALID,29.494,VALID,190,VALID,2.2125,
2008-07-15, 10:38:05,VALID,1004.28,VALID,0,VALID,71.4368,VALID,816.873,VALID,29.5352,VALID,213,VALID,1.5125,
2008-07-15, 10:39:05,VALID,1004.27,VALID,0,VALID,71.9175,VALID,810.537,VALID,29.533,VALID,187,VALID,0.832031,
2008-07-15, 10:40:05,VALID,1004.26,VALID,0,VALID,72.3599,VALID,810.437,VALID,29.6695,VALID,162,VALID,1.50664,
2008-07-15, 10:41:05,VALID,1004.26,VALID,0,VALID,70.4222,VALID,811.845,VALID,29.5525,VALID,176,VALID,1.99219,
2008-07-15, 10:42:05,VALID,1004.25,VALID,0,VALID,71.7878,VALID,812.146,VALID,29.533,VALID,144,VALID,1.58477,
2008-07-15, 10:43:05,VALID,1004.21,VALID,0,VALID,67.4927,VALID,815.264,VALID,29.7475,VALID,182,VALID,1.43516,
2008-07-15, 10:44:05,VALID,1004.22,VALID,0,VALID,68.103,VALID,816.269,VALID,29.7865,VALID,190,VALID,2.48242,
2008-07-15, 10:45:05,VALID,1004.22,VALID,0,VALID,71.6276,VALID,818.683,VALID,29.8255,VALID,161,VALID,1.49023,
2008-07-15, 10:46:05,VALID,1004.21,VALID,0,VALID,69.4915,VALID,818.281,VALID,29.7865,VALID,178,VALID,1.75234,
2008-07-15, 10:47:05,VALID,1004.18,VALID,0,VALID,67.9581,VALID,819.186,VALID,29.7865,VALID,192,VALID,2.40039,
2008-07-15, 10:48:05,VALID,1004.18,VALID,0,VALID,69.0566,VALID,821.197,VALID,29.6133,VALID,155,VALID,2.78594,